This demonstration page uses our WeatherBlox Daily Observations layout. Learn more.

Left ArrowRight Arrow

39.29038, -76.61219

Hourly Observations for July 25, 2021

Temp ( °F °C ) Dew Point ( °F °C ) Humidity (%) Winds ( mph kmh ) Pressure ( in mb ) Visibility ( mi km ) Precip ( " mm )
12:54 am 00:54 Mostly Clear 76 24.4 62 16.7 62 62 S 6 9 29.99 1016 10 16 N/A
1:16 am 01:16 Partly Cloudy 76 24.4 63 17.2 64 64 S 5 7 29.99 1016 10 16 N/A
1:54 am 01:54 Mostly Cloudy 75 23.9 63 17.2 66 66 SSW 6 9 29.99 1016 10 16 N/A
2:54 am 02:54 Cloudy 75 23.9 63 17.2 66 66 SSW 6 9 29.97 1015 10 16 N/A
3:54 am 03:54 Mostly Cloudy 75 23.9 63 17.2 66 66 SSW 6 9 29.94 1014 10 16 N/A
4:54 am 04:54 Cloudy 74 23.3 63 17.2 69 69 SSW 6 9 29.93 1014 10 16 N/A
5:54 am 05:54 Cloudy 74 23.3 63 17.2 69 69 SSW 5 7 29.93 1014 10 16 N/A
6:54 am 06:54 Mostly Cloudy 74 23.3 64 17.8 71 71 SSW 6 9 29.93 1014 10 16 N/A
7:54 am 07:54 Cloudy 75 23.9 65 18.3 71 71 SW 6 9 29.95 1014 10 16 N/A
8:54 am 08:54 Mostly Cloudy 76 24.4 66 18.9 72 72 SW 9 15 29.94 1014 10 16 N/A
9:54 am 09:54 Mostly Cloudy 80 26.7 68 20 67 67 WSW 10 17 29.93 1014 10 16 N/A
10:54 am 10:54 Mostly Cloudy 84 28.9 69 20.6 61 61 SSW 8 13 29.92 1013 10 16 N/A
11:54 am 11:54 Mostly Cloudy 86 30 70 21.1 59 59 WSW 9 15 29.92 1013 10 16 N/A
12:54 pm 12:54 Mostly Cloudy 90 32.2 69 20.6 50 50 WSW 8 13 29.91 1013 10 16 N/A
1:54 pm 13:54 Mostly Cloudy 92 33.3 69 20.6 47 47 SSW 8 13 29.89 1012 10 16 N/A
2:54 pm 14:54 Mostly Cloudy 91 32.8 70 21.1 50 50 SW 8 13 29.88 1012 10 16 N/A
3:54 pm 15:54 Mostly Cloudy 90 32.2 70 21.1 52 52 SSW 8 13 29.86 1011 10 16 N/A
4:54 pm 16:54 Mostly Cloudy 92 33.3 70 21.1 49 49 SSW 9 15 29.85 1011 10 16 N/A
5:54 pm 17:54 Mostly Cloudy 91 32.8 70 21.1 50 50 SSW 13 20 29.85 1011 10 16 N/A
6:54 pm 18:54 Mostly Cloudy 90 32.2 70 21.1 52 52 SSW 8 13 29.84 1011 10 16 N/A
7:54 pm 19:54 Mostly Cloudy 87 30.6 71 21.7 59 59 SSW 7 11 29.84 1011 10 16 N/A
8:54 pm 20:54 Partly Cloudy 85 29.4 70 21.1 61 61 SSW 6 9 29.85 1011 10 16 N/A
9:54 pm 21:54 Partly Cloudy 83 28.3 72 22.2 70 70 S 5 7 29.87 1011 10 16 N/A
10:54 pm 22:54 Partly Cloudy with Thunderstorms 82 27.8 72 22.2 72 72 SW 5 7 29.88 1012 10 16 N/A
11:23 pm 23:23 Partly Cloudy 82 27.8 72 22.2 72 72 SW 6 9 29.87 1012 10 16 N/A
11:54 pm 23:54 Partly Cloudy 83 28.3 72 22.2 70 70 SW 5 7 29.88 1012 10 16 N/A

Powered by AerisWeather